Temp
62 62 62 61 61 61 62 62 62 62 62 62 62 62 62 62 62 71 80 87 84 74 75 88 87 86 85 83 83 81 79 75 74 74 74 77 78 79 79 74 73 75 76 77 76
61 61 61 61 61 61 61 61 61 62 62 62 62 62 62 62 69 75 83 75 74 75 89 87 85 84 83 81 83 82 77 75 78 80 67 71 73 74 74 72 67 67 71 74 73
61 61 61 61 61 60 61 61 61 61 61 62 62 62 62 64 78 86 78 74 74 77 89 87 85 84 82 82 80 76 72 77 73 74 76 71 69 73 73 64 68 65 66 69 69
60 60 60 60 60 60 60 61 61 62 62 61 61 61 62 71 74 89 76 74 74 87 89 86 85 82 80 79 79 76 69 71 70 72 71 66 70 63 67 63 69 68 68 67 65
60 60 60 60 60 60 60 60 61 61 61 61 61 62 72 78 83 88 77 77 85 88 87 86 84 81 79 80 79 73 69 71 72 71 70 70 65 61 61 66 69 68 68 65 63
59 59 59 59 59 59 59 59 59 60 60 60 62 62 76 76 89 87 85 84 89 88 87 87 86 85 81 79 78 72 71 70 72 71 71 66 64 65 62 68 67 66 64 63 63
59 59 59 59 59 59 59 58 58 59 60 62 63 71 74 83 90 87 87 89 89 89 87 87 88 85 83 78 77 75 69 71 71 70 71 74 62 57 65 67 65 65 64 63 64
59 58 58 59 59 59 59 59 59 60 61 62 64 73 76 89 88 88 88 90 88 89 89 89 88 86 83 82 78 74 72 66 68 70 71 71 51 59 67 67 63 64 65 62 63
58 58 58 58 59 59 59 58 60 61 62 64 71 75 81 87 88 92 92 90 89 89 89 89 87 80 81 79 74 70 65 62 63 70 69 69 53 58 65 63 60 61 62 62 62
58 58 58 58 58 58 58 59 61 64 67 71 76 75 85 85 89 91 90 90 89 88 86 85 82 80 78 78 68 66 61 60 59 64 66 58 54 59 62 63 61 61 61 60 59
58 58 57 58 58 57 61 73 79 78 75 79 80 80 83 90 89 91 90 89 88 84 78 78 79 73 74 75 72 68 64 58 60 64 62 58 56 58 63 64 60 60 59 60 60
58 57 57 57 57 57 68 82 81 82 75 79 78 79 83 86 83 88 92 85 81 75 76 78 70 73 75 74 70 68 62 58 60 64 61 56 54 59 62 62 63 60 59 60 60
57 57 57 57 57 65 79 82 83 84 74 79 82 81 85 86 84 86 90 85 79 75 75 73 73 76 76 71 70 66 66 57 58 60 64 60 53 57 59 58 59 60 61 61 60
56 56 56 57 68 78 83 82 80 81 71 75 80 85 85 86 82 90 91 87 81 75 76 76 77 75 75 71 72 67 68 64 58 60 54 61 54 55 59 56 56 59 60 60 61
56 56 56 56 78 83 82 81 81 82 55 78 82 92 87 84 84 86 89 87 76 76 79 71 73 73 72 70 73 67 68 65 63 60 58 53 54 53 59 54 57 59 60 61 60
56 56 56 68 75 82 80 80 82 69 56 73 81 80 81 81 82 85 84 87 82 77 77 74 78 76 74 74 72 68 65 63 62 62 55 54 54 53 51 58 60 60 61 60 61
55 55 61 72 82 79 80 82 68 60 73 71 73 77 76 74 76 76 74 72 71 67 66 71 71 76 76 73 73 70 65 58 55 55 52 55 53 55 60 60 62 60 59 58 60
54 54 60 77 76 77 82 75 58 67 69 76 74 74 71 73 73 72 71 68 72 70 67 64 60 70 74 70 67 65 64 58 46 49 54 55 52 52 59 60 59 59 58 58 54
53 73 77 79 77 78 78 64 65 68 72 71 74 70 69 72 73 71 67 67 68 69 66 63 60 71 72 73 70 65 62 63 55 53 53 54 55 57 56 55 55 54 56 51 55
72 75 78 76 75 77 72 58 68 72 74 74 65 68 65 67 69 68 65 69 67 69 71 65 59 67 70 73 72 68 67 57 60 47 45 51 50 46 51 51 54 55 51 55 56
71 76 82 75 78 72 66 66 70 76 75 72 68 67 66 65 66 64 62 67 68 69 71 67 65 62 67 62 61 64 61 59 56 53 48 46 46 51 51 55 54 54 57 57 56
69 70 79 78 71 61 66 66 61 72 75 73 71 67 66 64 64 64 62 64 68 69 65 63 62 57 58 64 66 63 57 56 53 48 48 48 46 56 57 57 59 58 56 54 58
67 68 77 77 65 64 66 69 70 70 67 70 67 68 66 63 60 64 65 70 68 67 65 65 56 55 56 60 64 58 59 57 54 53 46 46 46 58 58 57 58 57 56 55 56
66 68 70 67 63 63 63 65 67 71 68 67 67 69 67 63 65 62 65 68 68 65 60 63 57 55 52 53 57 53 56 57 55 51 49 48 50 54 55 55 55 55 55 57 57
62 58 59 62 64 61 62 65 65 65 70 69 67 65 65 61 62 62 65 67 69 64 64 64 55 56 56 57 57 55 55 56 54 53 49 51 51 53 53 53 55 56 56 54 55
61 61 61 60 57 62 57 62 64 64 66 65 63 63 65 62 62 61 64 65 64 68 62 60 54 56 52 56 56 53 55 56 55 54 53 52 52 54 55 56 55 53 53 55 54
57 59 60 53 59 63 60 62 64 66 67 68 66 66 65 64 67 67 67 65 64 65 60 58 56 53 49 54 53 49 53 54 55 56 54 50 53 55 52 52 50 51 54 53 53
MSLP
1016.91 1016.80 1016.72 1016.52 1016.44 1016.45 1016.30 1015.98 1015.69 1015.47 1015.14 1014.99 1014.89 1014.75 1014.46 1014.26 1013.69 1013.31 1011.81 1010.37 1010.23 1010.16 1010.54 1010.40 1010.43 1010.46 1010.52 1010.49 1010.61 1010.61 1010.00 1009.73 1009.84 1010.13 1011.00 1011.59 1011.45 1012.61 1013.65 1014.03 1014.93 1015.34 1015.72 1016.67 1018.06
1016.77 1016.65 1016.54 1016.40 1016.24 1016.26 1015.99 1015.68 1015.53 1015.28 1015.03 1014.86 1014.76 1014.57 1014.27 1014.12 1013.47 1011.83 1010.10 1010.13 1010.23 1010.25 1010.23 1010.17 1010.08 1010.17 1010.10 1010.33 1010.28 1010.27 1010.44 1010.55 1010.92 1011.09 1012.55 1012.84 1012.98 1013.55 1014.18 1015.18 1016.50 1016.89 1017.60 1018.16 1018.81
1016.53 1016.37 1016.24 1016.07 1015.97 1015.84 1015.72 1015.52 1015.29 1015.10 1014.83 1014.77 1014.65 1014.35 1014.10 1013.86 1012.63 1010.58 1009.95 1010.18 1010.34 1010.41 1010.17 1010.22 1010.11 1009.89 1009.75 1010.12 1010.59 1011.03 1011.73 1011.54 1012.12 1012.56 1012.83 1013.65 1014.33 1014.99 1015.15 1016.60 1017.51 1017.94 1018.58 1019.16 1019.57
1016.43 1016.24 1016.03 1015.82 1015.68 1015.63 1015.52 1015.30 1015.12 1014.89 1014.80 1014.71 1014.47 1014.21 1013.83 1013.46 1011.88 1010.15 1010.14 1010.15 1010.37 1010.22 1010.13 1009.98 1009.68 1009.51 1009.66 1009.96 1010.90 1011.33 1013.46 1012.72 1013.60 1013.61 1013.89 1014.57 1016.19 1017.00 1017.11 1018.46 1018.88 1019.18 1019.69 1020.14 1020.63
1016.37 1015.92 1015.89 1015.61 1015.54 1015.39 1015.20 1015.12 1014.94 1014.76 1014.70 1014.59 1014.39 1014.14 1013.54 1012.53 1010.80 1010.04 1010.35 1010.35 1010.24 1010.12 1009.89 1009.62 1009.46 1009.61 1009.63 1010.35 1011.02 1012.14 1013.77 1014.38 1014.88 1014.90 1015.39 1015.93 1017.07 1018.16 1019.10 1019.58 1019.78 1020.11 1020.50 1021.08 1021.67
1015.97 1015.89 1015.62 1015.28 1015.20 1014.90 1014.89 1014.94 1014.74 1014.51 1014.53 1014.55 1014.36 1014.06 1013.32 1011.64 1010.05 1010.00 1010.21 1010.27 1009.96 1009.87 1009.66 1009.55 1009.39 1009.53 1009.72 1010.51 1011.12 1013.14 1013.87 1014.82 1015.47 1015.69 1016.33 1016.41 1018.21 1018.77 1020.33 1020.36 1020.44 1020.71 1021.34 1021.98 1022.30
1015.89 1015.70 1015.17 1015.06 1014.68 1014.76 1014.84 1014.66 1014.40 1014.39 1014.48 1014.40 1014.22 1013.78 1012.89 1010.64 1009.79 1010.04 1010.06 1009.65 1009.63 1009.61 1009.43 1009.53 1009.49 1009.49 1009.73 1010.89 1012.55 1012.90 1013.51 1014.80 1015.63 1016.10 1016.39 1016.64 1018.80 1020.31 1020.88 1020.88 1020.91 1021.24 1021.93 1022.47 1022.88
1015.74 1015.14 1014.98 1014.58 1014.72 1014.66 1014.54 1014.21 1014.21 1014.25 1014.31 1014.24 1014.14 1013.66 1011.56 1009.53 1009.69 1009.70 1009.56 1009.38 1009.59 1009.67 1009.60 1009.50 1009.53 1009.45 1009.79 1011.10 1012.22 1012.46 1013.47 1014.17 1016.18 1016.14 1016.48 1016.81 1020.04 1021.20 1021.33 1021.24 1021.60 1021.87 1022.39 1023.03 1023.46
1015.48 1014.98 1014.70 1014.48 1014.64 1014.27 1014.19 1014.03 1013.94 1014.05 1014.06 1014.07 1014.03 1013.15 1010.35 1009.09 1009.19 1008.95 1009.03 1009.05 1009.20 1009.33 1009.40 1009.48 1009.48 1009.71 1010.10 1010.17 1011.30 1012.65 1013.51 1015.05 1016.15 1016.56 1016.73 1017.26 1020.27 1021.63 1021.89 1021.85 1022.32 1022.58 1022.92 1023.42 1023.76
1015.25 1014.94 1014.66 1014.56 1014.33 1014.11 1013.85 1013.70 1013.73 1013.79 1014.00 1013.90 1013.43 1012.74 1010.01 1009.34 1008.89 1008.69 1008.91 1008.85 1008.85 1008.88 1009.11 1009.33 1009.53 1009.63 1010.02 1010.15 1010.74 1012.36 1014.24 1015.97 1016.76 1018.18 1017.98 1019.16 1020.70 1021.78 1022.02 1021.93 1022.45 1022.95 1023.38 1023.73 1024.12
1015.29 1015.05 1014.61 1014.19 1013.96 1013.90 1013.58 1013.65 1013.78 1013.49 1013.16 1012.47 1011.97 1011.19 1009.90 1009.15 1008.89 1008.52 1008.68 1008.66 1008.84 1009.07 1009.18 1009.78 1009.48 1009.98 1010.50 1010.60 1011.53 1012.95 1014.52 1016.27 1017.96 1018.81 1019.06 1020.14 1021.04 1021.70 1022.18 1022.29 1022.92 1023.45 1023.81 1023.99 1024.25
1015.36 1014.96 1014.34 1013.85 1013.70 1013.51 1013.39 1012.74 1012.57 1012.43 1012.06 1011.42 1011.14 1010.64 1009.86 1009.48 1008.87 1008.47 1008.53 1008.63 1008.77 1009.02 1009.55 1009.90 1010.34 1011.10 1011.17 1011.59 1012.21 1013.43 1014.84 1016.81 1018.35 1019.05 1019.58 1020.64 1021.33 1021.85 1022.26 1022.76 1023.08 1023.64 1024.00 1024.16 1024.41
1014.83 1014.60 1014.17 1013.66 1013.44 1013.45 1012.86 1012.39 1012.04 1012.01 1011.86 1010.72 1010.26 1009.79 1009.37 1009.34 1008.77 1008.53 1008.48 1008.66 1009.06 1009.16 1009.54 1009.69 1011.23 1011.54 1011.54 1012.23 1012.51 1013.72 1014.46 1016.30 1017.39 1019.00 1019.73 1020.20 1021.12 1021.62 1022.51 1023.22 1023.68 1023.98 1024.23 1024.41 1024.52
1014.55 1014.19 1013.89 1013.39 1013.59 1012.95 1012.42 1012.09 1011.96 1012.00 1011.35 1010.46 1009.67 1009.11 1009.18 1009.00 1008.82 1008.60 1008.54 1008.66 1009.09 1009.59 1009.98 1010.76 1011.37 1011.38 1011.62 1012.09 1012.72 1013.35 1014.37 1015.60 1016.83 1017.53 1018.50 1019.56 1019.71 1020.91 1021.57 1022.59 1023.29 1023.66 1023.97 1024.26 1024.55
1014.37 1013.92 1013.62 1013.20 1012.75 1012.57 1012.52 1012.08 1011.96 1011.78 1010.95 1010.31 1009.16 1008.67 1008.84 1008.88 1009.13 1008.92 1008.91 1008.54 1009.44 1009.86 1010.22 1011.38 1011.48 1011.63 1011.80 1012.39 1012.63 1014.04 1014.79 1015.47 1016.45 1017.07 1017.76 1019.24 1019.46 1019.94 1020.99 1021.75 1022.43 1023.26 1023.90 1024.38 1024.81
1014.18 1013.68 1013.46 1012.92 1012.61 1012.29 1012.16 1011.94 1011.94 1011.63 1010.85 1010.04 1009.24 1008.88 1009.02 1009.26 1009.32 1009.38 1009.28 1009.42 1010.35 1010.57 1011.04 1011.65 1011.98 1012.17 1012.32 1012.79 1013.13 1014.23 1015.10 1015.88 1016.55 1016.72 1017.00 1018.30 1018.99 1019.21 1020.54 1020.90 1021.82 1023.27 1023.90 1024.60 1025.07
1013.86 1013.35 1013.16 1012.80 1012.52 1012.13 1011.85 1011.67 1011.79 1011.25 1011.17 1010.59 1010.01 1009.61 1009.62 1009.92 1010.10 1010.27 1010.71 1011.06 1011.39 1011.65 1012.00 1012.30 1012.70 1012.83 1012.96 1012.83 1013.55 1014.10 1014.46 1014.92 1015.44 1015.84 1016.80 1018.28 1018.84 1018.70 1020.15 1021.38 1021.96 1023.17 1024.27 1025.12 1025.47
1013.57 1013.29 1013.15 1012.59 1012.47 1012.11 1011.81 1011.94 1011.78 1011.76 1011.25 1010.95 1010.68 1010.43 1010.55 1010.99 1011.20 1011.44 1011.75 1012.33 1012.70 1012.66 1012.91 1013.00 1013.48 1013.68 1013.87 1014.02 1014.12 1014.44 1014.83 1015.13 1015.38 1016.09 1016.94 1018.30 1018.26 1020.25 1021.60 1022.60 1023.20 1024.02 1024.93 1025.60 1025.96
1013.32 1013.08 1012.87 1012.72 1012.42 1012.15 1012.15 1012.23 1012.30 1012.03 1011.76 1011.32 1011.01 1011.11 1011.51 1011.69 1011.85 1012.27 1013.07 1013.48 1013.91 1013.73 1013.62 1013.85 1014.48 1014.81 1014.77 1014.75 1014.97 1014.95 1015.44 1016.40 1016.43 1017.31 1017.47 1018.37 1019.20 1021.10 1022.59 1023.35 1024.00 1024.81 1025.38 1026.00 1026.31
1013.57 1013.32 1013.19 1012.82 1012.58 1012.39 1012.57 1012.97 1012.83 1012.51 1012.07 1011.76 1011.97 1012.41 1012.48 1012.67 1012.71 1013.19 1014.03 1014.64 1014.59 1014.46 1014.37 1014.75 1015.00 1015.48 1015.49 1015.43 1015.65 1015.63 1016.65 1016.77 1016.96 1017.20 1017.64 1018.76 1020.01 1021.92 1022.82 1023.59 1024.27 1024.96 1025.57 1025.91 1026.17
1013.89 1013.65 1013.07 1012.84 1012.69 1012.97 1013.48 1013.67 1013.24 1012.74 1012.46 1012.39 1012.81 1013.18 1013.70 1013.80 1013.99 1014.54 1015.27 1015.37 1015.37 1015.07 1014.93 1015.26 1015.44 1016.34 1016.29 1016.86 1016.91 1016.78 1017.12 1017.82 1018.42 1018.81 1018.81 1019.49 1021.52 1023.31 1023.61 1023.79 1024.36 1025.04 1025.51 1025.89 1026.23
1014.59 1014.22 1013.28 1012.83 1013.47 1014.78 1014.48 1014.36 1013.99 1013.37 1013.06 1013.17 1013.56 1014.12 1014.51 1014.84 1015.08 1015.33 1015.83 1016.03 1016.04 1015.82 1015.88 1016.67 1016.79 1017.03 1017.61 1018.14 1018.27 1018.39 1018.77 1019.07 1018.89 1019.56 1020.37 1020.90 1022.52 1023.71 1023.98 1024.28 1024.54 1025.11 1025.84 1026.51 1026.73
1015.95 1015.25 1013.67 1013.27 1014.63 1015.27 1015.10 1014.68 1014.46 1014.02 1014.28 1014.13 1014.68 1014.99 1015.41 1015.73 1016.01 1015.96 1016.11 1016.35 1016.27 1016.40 1016.91 1017.24 1018.01 1017.93 1018.20 1018.75 1018.80 1019.13 1019.68 1020.03 1020.30 1020.47 1020.98 1021.25 1022.60 1023.75 1024.21 1024.48 1024.95 1025.59 1026.36 1026.76 1027.05
1016.86 1016.46 1015.62 1015.58 1016.80 1016.13 1015.78 1015.25 1014.86 1014.84 1014.98 1015.19 1015.49 1015.53 1015.75 1016.20 1016.28 1016.39 1016.49 1016.71 1016.81 1017.27 1017.74 1017.66 1018.80 1018.94 1019.20 1019.67 1020.11 1020.16 1020.51 1020.59 1020.54 1020.68 1021.59 1022.34 1022.89 1023.77 1024.44 1024.87 1025.69 1026.28 1026.74 1027.07 1027.42
1018.08 1018.76 1018.63 1017.68 1017.39 1017.05 1016.56 1016.07 1015.52 1015.47 1015.55 1015.78 1016.01 1016.22 1016.21 1016.49 1016.69 1016.80 1016.92 1017.08 1017.26 1017.75 1018.06 1018.42 1019.44 1020.08 1020.45 1020.63 1020.77 1021.10 1021.21 1021.23 1021.28 1021.92 1022.04 1022.76 1023.23 1024.14 1025.12 1025.62 1026.27 1026.85 1027.23 1027.61 1027.78
1019.74 1019.79 1019.38 1018.79 1018.37 1017.49 1017.13 1016.91 1016.41 1016.54 1016.44 1016.48 1016.64 1016.96 1016.90 1017.20 1017.52 1017.39 1017.41 1017.56 1017.79 1018.01 1018.63 1019.50 1020.29 1020.62 1021.01 1021.31 1021.41 1021.50 1021.66 1021.74 1021.98 1022.32 1022.69 1023.17 1023.73 1024.94 1025.75 1026.31 1026.74 1027.26 1027.62 1027.81 1028.13
1021.29 1020.96 1020.16 1019.64 1018.81 1018.12 1018.07 1017.61 1017.16 1016.91 1017.29 1017.21 1017.43 1017.42 1017.70 1018.17 1018.08 1018.03 1018.02 1018.20 1018.32 1018.47 1019.20 1019.79 1020.47 1020.91 1021.24 1021.72 1021.74 1021.76 1021.95 1022.03 1022.32 1022.66 1023.06 1023.22 1024.21 1025.18 1025.98 1026.63 1027.23 1027.71 1027.92 1028.25 1028.58
Wind_Speed
8 8 9 8 8 9 9 8 8 9 10 11 11 11 11 11 12 2 3 2 4 3 8 3 2 3 2 3 1 3 2 1 1 2 5 8 6 8 9 11 10 6 7 14 14
8 9 9 8 8 9 9 8 8 9 10 11 11 11 10 10 3 2 5 5 7 7 3 1 0 3 4 2 1 1 3 5 5 4 10 14 10 5 7 9 12 16 17 17 13
9 10 10 10 10 9 9 9 8 9 10 10 11 11 10 7 3 1 4 9 4 5 2 2 2 1 3 1 3 3 8 7 12 1 12 11 22 7 4 14 9 12 14 15 15
9 10 10 10 10 10 10 10 10 9 9 10 11 12 12 3 3 2 6 4 6 4 2 1 2 2 2 3 3 8 17 12 12 8 5 10 12 21 20 10 12 14 13 15 15
9 9 10 9 10 9 9 10 10 8 8 9 10 11 2 2 3 1 4 6 5 3 1 2 4 2 2 5 5 13 11 18 20 25 25 26 23 15 16 14 14 16 16 17 15
9 9 10 9 9 9 8 9 8 7 7 8 9 10 2 1 3 1 5 4 3 3 0 1 1 1 3 5 7 16 20 20 21 21 16 23 18 6 10 11 14 16 17 15 15
10 9 9 10 9 9 9 8 6 6 7 7 6 3 0 5 4 1 6 3 4 3 2 2 3 2 2 11 20 19 22 15 13 3 15 14 19 11 10 12 13 14 14 13 13
11 11 10 10 9 8 8 6 5 5 5 6 3 1 6 2 0 7 5 4 3 3 2 0 4 2 3 11 10 5 3 5 18 2 5 5 7 8 8 11 13 12 12 13 11
12 12 11 10 9 7 7 4 3 2 0 1 1 2 3 6 2 0 4 1 4 4 2 4 1 3 3 7 6 6 6 7 6 10 4 3 10 9 9 12 12 10 10 10 10
13 12 11 9 6 6 7 3 6 3 2 3 3 3 2 5 4 3 2 1 1 2 3 3 4 3 4 4 4 5 8 10 9 13 20 19 14 11 9 11 11 10 9 9 11
13 11 11 9 6 4 2 3 0 2 2 3 4 4 5 7 3 1 2 3 2 5 3 4 4 8 7 9 11 14 13 15 10 3 11 12 11 9 8 11 10 8 7 7 9
13 11 10 9 6 2 3 3 3 2 5 3 5 6 5 3 3 2 3 1 3 4 1 6 8 3 11 14 17 16 17 8 9 8 8 10 9 6 6 7 7 8 6 6 7
16 12 9 8 2 3 1 2 3 1 1 4 3 3 1 4 1 3 1 2 7 12 10 10 4 3 10 10 11 4 5 10 8 12 12 13 5 7 5 6 6 5 6 6 6
18 15 10 8 1 0 1 4 4 6 2 3 1 1 3 2 2 2 1 1 3 9 8 9 2 4 5 4 1 3 1 15 19 8 5 9 2 8 8 7 5 4 5 5 5
18 15 10 4 2 2 4 7 5 2 3 2 1 1 1 3 2 6 4 5 4 4 5 4 2 4 7 4 1 5 10 14 14 3 7 9 5 3 7 10 10 7 6 5 6
18 13 7 1 0 2 7 1 1 1 4 2 3 2 3 4 4 3 5 9 2 8 10 5 1 4 4 5 8 15 8 4 6 3 4 4 5 7 7 12 8 6 5 4 5
18 10 1 2 2 8 5 1 0 3 2 5 3 3 5 5 5 5 6 9 4 3 5 4 6 3 5 2 5 6 1 4 5 4 5 1 7 5 10 2 2 7 5 4 5
19 2 1 2 6 4 2 2 4 1 2 2 1 5 5 8 5 6 4 5 8 3 3 2 3 6 9 4 3 5 3 4 6 5 5 2 3 7 10 10 10 6 5 3 2
11 1 2 8 5 1 3 3 1 1 3 3 2 6 5 4 2 4 7 4 7 4 1 3 5 2 7 8 4 2 4 3 3 2 4 2 0 10 7 6 6 6 5 1 6
2 2 3 11 4 3 3 2 1 2 4 1 4 2 4 6 3 4 7 5 4 10 2 2 5 3 3 3 10 6 3 3 1 5 9 1 2 6 11 1 4 4 4 7 4
3 3 2 8 1 5 3 2 3 3 1 5 3 4 4 3 5 4 6 3 6 5 6 2 3 3 1 6 7 6 4 4 1 4 4 5 5 4 7 3 3 4 5 2 2
2 3 5 4 4 2 2 1 4 5 8 7 5 6 4 6 4 4 3 3 8 3 4 4 3 3 3 1 6 8 5 4 4 3 3 2 4 4 3 5 4 4 6 8 6
3 2 2 2 3 2 2 2 5 3 7 4 4 5 4 3 3 2 2 4 8 5 2 2 4 2 4 5 3 6 7 3 2 2 5 5 4 4 3 3 6 6 8 6 6
2 2 4 6 2 2 3 3 4 5 5 5 3 2 3 3 5 3 3 5 4 4 7 5 4 4 3 3 2 3 9 7 4 4 3 4 3 3 2 4 5 6 6 7 7
5 2 1 3 5 3 1 3 3 5 4 8 4 5 2 2 2 3 2 2 4 5 5 4 4 4 6 6 7 5 6 10 10 5 4 3 4 3 5 4 6 6 6 5 6
3 1 1 2 2 1 6 4 3 3 5 4 6 5 4 5 4 1 0 1 2 4 4 3 4 2 3 5 5 6 4 4 5 2 1 2 3 4 6 7 6 6 5 5 7
2 1 3 3 3 1 2 2 2 4 6 6 5 4 9 5 3 3 2 4 3 2 3 3 5 2 3 4 4 2 4 3 2 2 3 6 4 7 5 5 5 5 5 6 7
Wind_Direction
312 310 307 309 299 288 285 290 303 305 307 303 311 315 317 327 307 220 252 222 175 162 175 134 130 66 93 99 118 172 227 32 358 16 79 18 114 59 66 71 46 38 63 103 111
317 312 307 303 298 288 295 301 300 299 299 304 316 312 323 334 299 279 257 242 224 162 174 107 57 110 99 104 170 318 5 29 9 9 89 67 67 56 80 80 60 77 88 94 100
325 320 312 306 300 302 300 295 296 296 306 313 316 315 321 320 269 64 3 198 176 196 101 100 107 132 105 175 67 66 6 322 8 37 112 91 57 36 112 52 75 96 92 88 75
324 316 308 304 302 298 292 295 294 304 316 318 317 318 316 250 85 258 0 148 174 199 143 127 38 75 83 63 64 108 43 50 16 55 80 78 87 64 61 85 81 82 84 79 69
321 325 307 306 297 289 294 296 298 308 320 317 314 321 303 327 258 313 124 143 153 180 226 85 52 98 49 65 106 102 93 77 76 80 87 86 70 71 67 73 81 77 72 66 63
331 320 317 316 305 307 300 289 291 315 310 300 304 314 346 340 129 179 177 166 185 194 241 178 97 177 100 58 54 113 91 95 84 79 85 82 64 69 56 89 82 76 68 67 69
331 317 332 321 327 306 285 284 308 304 287 285 305 337 358 241 142 215 208 223 184 193 289 230 159 229 108 107 124 121 99 89 27 35 125 76 58 70 73 69 69 72 72 71 77
329 337 333 336 317 298 292 301 293 281 284 287 282 241 259 229 226 270 188 241 202 245 243 357 179 96 33 124 127 173 120 92 26 91 42 108 98 72 72 76 63 79 80 80 78
337 338 333 332 305 315 295 285 280 263 289 42 207 259 288 312 268 142 199 247 169 145 142 130 96 64 130 137 132 36 95 57 57 21 99 123 119 105 94 93 77 71 68 78 80
342 334 325 307 314 309 304 201 102 140 115 201 249 245 232 326 301 321 117 112 8 350 86 39 47 74 91 213 110 125 115 62 81 66 88 91 110 114 121 114 105 92 79 74 62
341 328 314 313 321 298 169 155 333 103 148 253 299 272 295 301 270 121 134 116 81 60 99 37 124 84 77 84 103 102 108 114 112 89 77 111 120 128 117 108 98 97 91 66 63
339 330 325 320 303 235 232 71 113 43 315 216 260 273 273 275 306 79 170 89 49 93 113 114 76 27 102 108 107 116 118 110 96 88 110 129 110 124 127 109 121 124 106 93 70
340 336 332 325 119 175 47 76 92 50 259 303 224 251 277 182 333 8 190 113 77 80 73 81 78 125 111 122 120 157 136 170 136 112 125 138 139 172 129 124 104 88 110 88 75
338 334 333 320 144 346 63 342 308 192 43 339 304 83 141 247 56 346 231 89 72 94 79 74 65 81 100 99 265 114 24 148 147 167 171 211 174 220 192 193 162 173 152 126 95
338 331 327 319 133 83 346 333 132 228 84 328 319 38 49 52 320 43 358 44 103 112 160 99 71 62 58 13 226 57 142 151 159 142 157 198 253 133 197 225 211 190 185 112 81
336 332 316 144 127 18 326 300 218 266 63 41 323 16 103 25 25 351 38 52 94 66 73 84 23 31 354 59 65 134 121 99 195 203 252 167 255 181 192 236 212 177 122 110 86
337 338 151 292 13 328 320 57 5 53 328 8 355 1 85 11 59 39 56 49 48 127 117 71 30 3 17 37 114 191 163 303 267 261 344 157 217 30 194 22 180 154 124 109 101
334 318 194 32 322 316 40 66 71 5 5 28 36 70 70 7 46 26 95 87 43 45 124 165 170 13 347 20 341 40 345 335 314 317 344 180 278 59 76 82 77 98 106 130 124
318 50 49 350 337 353 80 69 100 1 319 341 77 54 47 28 71 67 32 48 27 360 75 147 128 148 35 36 314 68 25 2 296 109 259 26 194 97 77 75 97 111 120 162 237
65 47 43 334 341 59 77 102 2 268 330 83 84 18 55 10 69 57 23 15 0 31 292 82 133 25 30 347 47 43 62 285 4 296 309 159 350 18 357 201 157 149 206 221 229
53 61 5 348 45 49 80 60 320 3 34 39 80 80 66 39 45 55 14 28 2 341 63 36 8 80 84 33 17 32 39 40 48 328 311 315 75 7 350 34 166 197 209 218 59
63 63 2 331 54 41 74 324 336 351 24 60 79 63 51 36 63 87 74 348 339 287 49 26 67 69 92 46 54 60 34 14 324 71 54 319 87 2 20 67 105 95 80 74 82
57 317 354 318 83 47 342 87 45 44 29 52 70 41 52 64 104 84 93 18 16 47 69 149 38 338 149 198 80 43 17 33 83 238 43 340 62 47 106 103 47 92 94 91 74
57 54 6 52 35 60 13 29 101 50 68 59 84 145 113 72 43 111 106 30 20 74 57 89 66 29 10 14 351 48 27 29 24 36 54 44 352 75 63 15 85 93 94 87 64
16 74 9 21 44 61 36 351 51 43 53 31 62 36 60 100 83 87 90 104 44 13 53 66 94 92 75 81 89 82 50 46 59 48 30 18 339 46 22 50 101 99 89 70 42
37 17 61 66 308 357 7 24 74 102 12 35 93 62 69 74 28 88 131 32 50 51 62 31 112 113 88 93 86 74 45 50 57 56 116 283 315 81 106 109 106 97 84 39 29
35 124 293 359 15 355 29 37 61 135 56 64 113 87 61 42 353 357 29 75 68 70 90 53 138 177 106 149 312 226 11 6 318 260 315 327 31 158 148 130 132 108 59 39 23